{"data":{"norad_id":60489,"epoch":"2026-09-19T04:31:37.951680Z","epoch_age_seconds":131493,"freshness":"FRESH","line1":"1 60489U 24149X   26262.18863370  .00049154  00000+0  10677-2 0  9996","line2":"2 60489  97.3621 344.8824 0003989 250.9223 109.1594 15.44196442116683","mean_motion":15.44196442,"eccentricity":0.0003989,"inclination_deg":97.3621,"raan_deg":344.8824,"arg_perigee_deg":250.9223,"mean_anomaly_deg":109.1594,"bstar":0.0010677,"rev_number":11668,"period_min":93.252384271457,"perigee_km":431.02293429033,"apogee_km":436.45744991419,"semimajor_km":6811.8771921023,"source":"CELESTRAK","updated_at":"2026-09-20T09:00:34.712542Z"}}